User: anonymous   Login
Location: Unspecified
(0.0000°N, 0.0000°E)
Time: 06:19:43
(UTC+00:00)
Language:

AISAT - Orbit

View from above orbital plane
View from above orbital plane
View from above satellite
View from above satellite

Ground track
Ground track

The orbit data is extracted from the following two-line orbital elements,

1 40054U 14034B   18175.33223745 +.00000426 +00000-0 +67355-4 0  9998
2 40054 098.2024 285.8264 0011512 294.6060 065.3950 14.77491257214666
Epoch (UTC): 24 June 2018 07:58:25
Eccentricity: 0.0011512
inclination: 98.2024°
perigee height: 629 km
apogee height: 645 km
right ascension of ascending node: 285.8264°
argument of perigee: 294.6060°
revolutions per day: 14.77491257
mean anomaly at epoch: 65.3950°
orbit number at epoch: 21466

The dashed part of the orbit path shows where the satellite is in the earth's shadow,  

DLR